Location: Newark
(45.4422°N, 16.2769°E)
Time: 19:06:59
(UTC+00:00)

Courier 1B - Pass Details

Date: 16 December 2019
Orbit: 962 x 1209 km, 28.3° (Epoch: 28 January)

Event Time Altitude Azimuth Distance (km) Brightness Sun altitude
Rises 20:16:14 0° 244° (WSW) 3,836 11.0 -51.8°
Enters shadow 20:17:17 - 240° (WSW) 3,541 10.7 -52.0°
Reaches altitude 10° 20:19:45 10° 227° (SW) 2,928 - -52.4°
Maximum altitude 20:24:35 19° 185° (S) 2,371 - -53.1°
Drops below altitude 10° 20:29:34 10° 143° (SE) 3,047 - -53.9°
Sets 20:33:20 0° 127° (SE) 4,046 - -54.5°
